Kuchera_Ratio
0.0 0.0 0.0 0.0 0.0 0.0 0.0 0.0 0.0 0.0 0.0 0.0 0.0 0.0 0.0 0.0 0.0 0.0 0.0 0.0 0.0 0.0 0.0 0.0 0.0 0.0 0.0 0.0 0.0 0.0 0.0 0.0 0.0 0.0 0.0 0.0 0.0 0.0 0.0 0.0 0.0 0.0 0.0 0.0 0.0 0.0 0.0
0.0 0.0 0.0 0.0 0.0 0.0 0.0 0.0 0.0 0.0 0.0 0.0 0.0 0.0 0.0 0.0 0.0 0.0 0.0 0.0 0.0 0.0 0.0 0.0 0.0 0.0 0.0 0.0 0.0 0.0 0.0 0.0 0.0 0.0 0.0 0.0 0.0 0.0 0.0 0.0 0.0 0.0 0.0 0.0 0.0 0.0 0.0
0.0 0.0 0.0 0.0 0.0 0.0 0.0 0.0 0.0 0.0 0.0 0.0 0.0 0.0 0.0 0.0 0.0 0.0 0.0 0.0 0.0 0.0 0.0 0.0 0.0 0.0 0.0 0.0 0.0 0.0 0.0 0.0 0.0 0.0 0.0 0.0 0.0 0.0 0.0 0.0 0.0 0.0 0.0 0.0 0.0 0.0 0.0
0.0 0.0 0.0 0.0 0.0 0.0 0.0 0.0 0.0 0.0 0.0 0.0 0.0 0.0 0.0 0.0 0.0 0.0 0.0 0.0 0.0 0.0 0.0 0.0 0.0 0.0 0.0 0.0 0.0 0.0 0.0 0.0 0.0 0.0 0.0 0.0 0.0 0.0 0.0 0.0 0.0 0.0 0.0 2.2 0.0 0.0 0.0
0.0 0.0 0.0 0.0 0.0 0.0 0.0 0.0 0.0 0.0 0.0 0.0 0.0 0.0 0.0 0.0 0.0 0.0 0.0 0.0 0.0 0.0 0.0 0.0 0.0 0.0 0.0 0.0 0.0 0.0 0.0 0.0 0.0 0.0 0.0 0.0 0.0 0.0 0.0 0.0 1.1 0.0 5.9 2.8 1.8 0.0 0.0
0.0 0.0 0.0 0.0 0.0 0.0 0.0 0.0 0.0 0.0 0.0 0.0 0.0 0.0 0.0 0.0 0.0 0.0 0.0 0.0 0.0 0.0 0.0 0.0 0.0 0.0 0.0 0.0 0.0 0.0 0.0 0.0 0.0 0.0 0.0 0.0 0.0 0.0 0.0 0.0 9.4 4.5 2.2 1.2 1.8 0.0 0.0
0.0 0.0 0.0 0.0 0.0 0.0 0.0 0.0 0.0 0.0 0.0 0.0 0.0 0.0 0.0 0.0 0.0 0.0 0.0 0.0 0.0 0.0 0.0 0.0 0.0 0.0 0.0 0.0 0.0 0.0 0.0 0.0 0.0 0.0 0.0 0.0 0.0 2.6 0.0 0.0 0.0 0.0 0.0 0.0 0.0 0.0 0.3
0.0 0.0 0.0 0.0 0.0 0.0 0.0 0.0 0.0 0.0 0.0 0.0 0.0 0.0 0.0 0.0 0.0 0.0 0.0 0.0 0.0 0.0 0.0 0.0 0.0 0.0 0.0 0.0 0.0 0.0 0.0 0.0 0.0 0.0 0.0 0.0 2.0 0.0 0.0 0.0 0.0 0.0 0.0 1.1 0.0 0.0 0.0
0.0 0.0 0.0 0.0 0.0 0.0 0.0 0.0 0.0 0.0 0.0 0.0 0.0 0.0 0.0 0.0 0.0 0.0 0.0 0.0 0.0 0.0 0.0 0.0 0.0 0.0 0.0 0.0 0.0 0.0 0.0 0.0 0.0 0.0 0.0 2.4 0.0 0.0 0.0 0.0 0.0 0.0 0.0 1.0 0.3 0.0 0.0
0.0 0.0 0.0 0.0 0.0 0.0 0.0 0.0 0.0 0.0 0.0 0.0 0.0 0.0 0.0 0.0 0.0 0.0 0.0 0.0 0.0 0.0 3.0 0.0 0.0 0.0 0.0 0.0 0.0 0.0 0.0 0.0 0.0 0.0 0.0 0.0 0.0 0.0 0.0 0.0 0.0 1.3 0.0 0.0 0.0 5.5 10.3
0.0 0.0 0.0 0.0 0.0 0.0 0.0 0.0 0.0 0.0 0.0 0.0 0.0 0.0 0.0 0.0 0.0 0.0 0.0 0.0 0.0 0.0 15.0 0.0 0.0 0.0 0.0 0.0 0.0 0.0 0.0 0.0 0.0 0.0 0.0 0.8 0.0 0.0 0.0 0.0 0.0 0.0 0.0 0.0 0.0 3.7 4.1
0.0 0.0 0.0 0.0 0.0 0.0 0.0 0.0 0.0 0.0 0.0 0.0 0.0 0.0 0.0 0.0 0.0 0.0 0.0 0.0 0.0 4.0 14.0 0.0 0.0 0.0 0.0 0.0 0.0 0.0 0.0 0.0 0.0 0.0 0.0 0.0 0.0 0.0 0.0 0.0 0.0 0.0 0.0 0.0 0.0 4.1 13.4
0.0 0.0 0.0 0.0 0.0 0.0 0.0 0.0 0.0 0.0 0.0 0.0 0.0 0.0 0.0 0.0 0.0 0.0 0.0 0.0 8.3 12.9 0.0 0.0 0.0 0.0 0.0 0.0 0.0 0.0 0.0 0.0 1.4 7.0 8.1 0.0 0.0 0.0 0.0 0.0 0.0 0.0 0.8 12.6 13.8 14.0 14.5
0.0 0.0 0.0 0.0 0.0 0.0 0.0 0.0 0.0 0.0 0.0 0.0 0.0 0.0 0.0 0.0 0.0 0.0 0.0 1.1 13.3 0.8 0.2 0.0 0.0 0.0 0.0 0.0 0.0 0.0 0.0 3.7 0.0 0.0 6.2 10.4 11.6 0.0 0.0 0.0 0.0 0.0 0.0 11.7 15.5 14.7 13.9
0.0 0.0 0.0 0.0 0.0 0.0 0.0 0.0 0.0 0.0 0.0 0.0 0.0 0.0 0.0 0.0 0.0 0.0 0.0 9.8 8.2 3.0 0.0 0.0 0.0 3.1 2.3 0.0 0.0 0.0 0.2 3.4 0.0 0.0 7.4 8.4 9.5 0.0 0.0 0.0 0.0 0.1 4.4 0.0 6.6 6.4 11.7
0.0 0.0 0.0 0.0 0.0 0.0 0.0 0.0 0.0 0.0 0.0 0.0 0.0 0.0 0.0 0.0 0.0 0.0 3.5 6.3 0.0 0.0 0.0 0.0 5.8 0.5 6.8 4.1 5.1 4.4 5.1 1.1 0.3 0.0 0.0 3.5 9.8 0.0 0.0 0.0 0.0 0.0 0.0 6.8 5.2 15.0 15.6
0.0 0.0 0.0 0.0 0.0 0.0 0.0 0.0 0.0 0.0 0.0 0.0 0.0 0.0 0.0 0.0 0.0 0.0 9.4 5.1 0.0 0.0 0.0 0.0 1.3 5.7 6.8 6.9 6.1 9.2 6.7 1.2 0.5 0.0 0.0 4.5 6.7 6.0 0.0 0.0 2.6 0.0 0.9 0.0 1.0 7.8 13.4
0.0 0.0 0.0 0.0 0.0 0.0 0.0 0.0 0.0 0.0 0.0 0.0 0.0 2.9 0.0 0.0 0.0 0.8 4.2 0.0 0.0 0.0 0.0 0.0 0.0 0.3 3.8 3.1 10.7 8.2 8.7 1.8 0.0 1.1 8.2 3.4 9.0 11.8 8.1 0.6 0.0 0.0 0.0 0.8 9.0 11.9 7.3
0.0 0.0 0.0 0.0 0.0 0.0 0.0 0.0 0.0 0.0 0.0 0.0 0.0 0.0 0.0 0.0 7.5 5.6 1.8 0.0 0.0 0.0 0.0 0.0 0.6 0.0 0.0 3.8 12.1 8.9 6.8 1.3 0.1 1.6 6.2 6.4 10.5 14.0 12.2 7.4 4.6 9.0 4.1 3.5 1.5 5.6 8.8
0.0 0.0 0.0 0.0 0.0 0.0 0.0 0.0 0.0 0.0 0.0 0.0 1.4 4.9 0.0 0.0 0.0 2.2 5.2 3.8 3.4 0.0 0.0 0.0 1.4 0.0 4.6 6.5 5.3 12.2 6.9 5.0 3.2 2.8 0.0 3.6 11.2 13.0 15.2 11.9 9.8 11.8 9.1 7.9 9.1 12.0 10.5
0.0 0.0 0.0 0.0 0.0 0.0 0.0 0.0 0.0 0.0 0.0 0.0 0.2 3.5 4.8 6.3 4.6 3.6 2.5 2.7 5.9 6.5 0.0 0.0 5.6 5.0 7.4 14.1 12.8 13.7 8.5 8.7 6.0 2.4 4.9 8.2 13.9 14.1 11.0 8.9 8.6 9.9 10.2 8.8 11.5 9.6 12.2
0.0 0.0 0.0 0.0 0.0 0.0 0.0 0.0 0.0 0.0 0.0 0.0 6.5 8.9 5.2 5.6 2.1 7.6 6.5 8.1 7.0 4.5 5.1 7.5 9.7 7.6 7.8 12.1 12.0 15.4 13.7 12.6 11.5 9.2 8.8 8.9 16.1 14.6 15.5 11.0 10.9 12.6 10.5 10.1 9.8 9.1 9.7
0.0 0.0 0.0 0.0 0.0 0.0 0.0 0.0 0.0 0.0 0.0 4.6 4.3 2.9 6.5 6.1 5.2 9.8 9.4 8.8 8.7 5.7 4.4 4.4 7.6 11.6 12.4 10.6 8.5 8.8 9.8 9.2 12.3 13.7 12.7 13.7 16.6 16.1 20.4 14.6 14.6 16.9 12.8 11.0 9.1 8.2 8.3
0.0 0.0 0.0 0.0 0.0 0.0 0.0 0.0 0.0 0.0 0.0 2.3 3.7 7.6 10.3 11.8 9.5 8.8 8.7 7.8 10.2 9.9 12.3 7.8 7.7 12.2 7.7 3.9 4.1 7.5 9.6 11.5 12.2 13.1 11.2 16.0 17.2 17.0 21.3 17.2 24.9 12.7 13.4 12.4 13.5 12.7 12.9
0.0 0.0 0.0 0.0 0.0 0.0 0.0 0.0 0.0 0.0 0.0 1.0 2.6 6.6 10.8 14.1 11.0 8.9 12.1 11.5 11.0 10.6 11.4 10.8 7.8 5.3 4.6 9.9 14.5 16.1 15.7 15.6 14.2 13.0 14.1 12.9 18.0 17.9 21.1 20.8 18.3 13.7 14.1 14.9 15.1 13.8 14.1
0.0 0.0 0.0 0.0 0.0 0.0 0.0 0.0 0.0 0.0 0.0 0.0 3.1 2.8 7.4 13.4 13.6 10.7 13.1 12.7 14.8 15.9 14.9 12.0 6.9 4.5 6.0 13.0 14.6 24.2 23.2 18.3 19.0 17.3 14.1 14.2 13.9 16.7 22.3 22.8 24.7 17.2 17.3 17.1 17.0 17.3 15.9
0.0 0.0 0.0 0.0 0.0 0.0 0.0 0.0 0.0 0.0 0.0 0.0 2.8 0.2 7.2 13.1 10.1 11.2 14.1 14.7 13.2 14.8 16.6 14.3 13.9 13.4 12.1 15.2 18.2 21.3 24.3 16.7 23.5 22.7 18.9 17.9 16.7 18.2 19.4 20.6 18.4 18.9 18.6 18.4 19.6 17.7 17.5
0.0 0.0 0.0 0.0 0.0 0.0 0.0 0.0 0.0 0.0 0.0 0.0 2.9 0.9 5.9 12.4 11.9 8.1 9.3 13.9 14.0 15.2 18.3 15.5 14.8 15.3 15.6 18.2 18.8 20.4 20.0 19.7 20.1 19.0 19.1 19.0 19.3 21.0 20.0 20.4 21.8 19.9 20.2 19.5 18.6 18.7 18.1
0.0 0.0 0.0 0.0 0.0 0.0 0.0 0.0 0.0 0.0 0.0 0.0 5.0 0.9 0.0 10.7 12.1 6.0 6.0 6.6 6.9 10.6 14.8 15.0 15.8 16.1 15.5 17.7 19.1 19.5 22.8 21.1 19.2 22.6 16.9 20.2 20.5 20.7 20.8 21.0 20.7 19.7 19.8 20.6 20.4 19.7 19.3